User: anonymous   Login
Location: Ottawa
(45.4170°N, 75.7000°W)
Time: 14:11:25
(UTC-05:00)
Language:

Aureole 3 Rocket - Orbit

View from above orbital plane
View from above orbital plane
View from above satellite
View from above satellite

Ground track
Ground track

The orbit data is extracted from the following two-line orbital elements,

1 12849U 81094B   17057.54635864  .00000321  00000-0  27950-4 0  9990
2 12849  82.4890 251.6438 0903427 352.5988   6.2517 13.50059859726990
Epoch (UTC): 26 February 2017 13:06:45
Eccentricity: 0.0903427
inclination: 82.4890°
perigee height: 399 km
apogee height: 1745 km
right ascension of ascending node: 251.6438°
argument of perigee: 352.5988°
revolutions per day: 13.50059859
mean anomaly at epoch: 6.2517°
orbit number at epoch: 72699

The dashed part of the orbit path shows where the satellite is in the earth's shadow,  

DLR